Regional Weather Roundup
Issued by NWS Cleveland, OH

Home | Current Version | Previous Version | Text Only | Print | Product List | Glossary Off
Versions: 1 2 3 4 5 6 7 8 9 10 11 12 13 14 15 16 17 18 19 20 21 22 23 24 25 26 27 28 29 30 31 32 33 34 35 36 37 38 39 40 41 42 43 44 45 46 47 48 49 50

000
ASUS41 KCLE 170812
RWRCLE
OHIO REGIONAL WEATHER ROUNDUP
NATIONAL WEATHER SERVICE WILMINGTON, OH
300 AM EST SUN DEC 17 2017

NOTE: "FAIR" INDICATES FEW OR NO CLOUDS BELOW 12,000 FEET WITH NO
SIGNIFICANT WEATHER AND/OR OBSTRUCTIONS TO VISIBILITY.

OHZ001>008-015>018-024>027-034-035-043-044-170900-
   NORTHWEST OHIO

CITY           SKY/WX    TMP DP  RH WIND       PRES   REMARKS
DEFIANCE       FOG       29  27  92 NE8       30.13R VSB 1/4 WCI  21
FINDLAY        FAIR      27  23  85 E5        30.11S FOG     WCI  22
TOLEDO EXPRESS CLOUDY    30  29  96 E5        30.15R WCI  25
TOLEDO EXEC    CLOUDY    30  27  88 NE6       30.16R WCI  24
LIMA           FAIR      33  27  78 S7        30.10F WCI  27
$$

OHZ009>014-019>023-028>033-038-089-170900-
   NORTHEAST OHIO

CITY           SKY/WX    TMP DP  RH WIND       PRES   REMARKS
CLE-HOPKINS    FAIR      28  25  88 E5        30.17S WCI  23
CLE-LAKEFRONT  FAIR      30  26  85 CALM      30.16S FOG
CUY CO. ARPT   NOT AVBL
LORAIN-ELYRIA  HAZE      20  15  81 E5        30.14F VSB 1/4 WCI  13
ASHTABULA      FOG       22  20  92 E3        30.18S VSB 1/2
AKRON-CANTON   FAIR      29  23  78 S5        30.14S WCI  24
WOOSTER        FAIR      27  23  85 CALM      30.15R
MANSFIELD      FAIR      33  25  72 SW8       30.13R WCI  26
YOUNGSTOWN     MOCLDY    24  22  91 NE5       30.14R WCI  18
$$

OHZ042-051>053-060>062-070>072-077>081-170900-
  SOUTHWEST OHIO

CITY           SKY/WX    TMP DP  RH WIND       PRES   REMARKS
CINC-COVINGTON CLOUDY    38  30  73 S9        30.16S
CINC-LUNKEN    FAIR      27  26  96 CALM      30.20R
HAMILTON       FAIR      29  27  92 CALM      30.17S
DAYTON         FAIR      37  29  72 S10       30.13F
WRIGHT-PAT AFB FAIR      32  28  86 SE6       30.13F WCI  26
DAYTON GENERAL FAIR      33  27  78 S10       30.14S WCI  25
WILMINGTON     FAIR      32  28  85 S9        30.16S WCI  24
$$

OHZ036-037-039>041-045>050-054>059-063>069-073>076-082>088-170900-
  CENTRAL AND SOUTHEAST OHIO

CITY           SKY/WX    TMP DP  RH WIND       PRES   REMARKS
COLUMBUS       FAIR      35  28  75 S5        30.17S
OSU AIRPORT    FAIR      32  28  85 S6        30.16S WCI  26
BOLTON FIELD   FAIR      31  27  84 S5        30.17S WCI  26
RICKENBACK AFB FAIR      34  28  81 S7        30.17F WCI  27
NEWARK         FAIR      26  22  84 CALM      30.17S
MARION         FAIR      32  25  75 S9        30.14S WCI  24
LANCASTER      FAIR      38  28  67 S5        30.18S
ZANESVILLE     FAIR      25  21  85 CALM      30.19R
NEW PHILLY     FAIR      26  23  88 SE5       30.19R WCI  20
$$




USA.gov is the U.S. government's official web portal to all federal, state and local government web resources and services.